Location: Castro Valley
(37.6940°N, 122.0850°W)
Time: 04:17:32
(UTC-07:00)

PANSAT - Visible Passes

Search period start: 24 October 2014 00:00
Search period end: 02 November 2014 23:00
Orbit: 489 x 496 km, 28.5° (Epoch: 23 October)

Date Brightness Start Highest point End Pass type
(mag) Time Alt. Az. Time Alt. Az. Time Alt. Az.
28 Oct 9.9 06:39:00 10° SW 06:41:38 18° S 06:44:17 10° SE visible
29 Oct 9.8 06:13:38 11° SW 06:16:04 18° S 06:18:45 10° SE visible
30 Oct 9.6 05:49:40 17° S 05:50:30 18° S 05:53:13 10° SE visible
31 Oct 9.8 05:25:39 18° SSE 05:25:39 18° SSE 05:27:40 10° SE visible
31 Oct 9.7 07:01:42 10° SW 07:04:29 19° S 07:07:16 10° SE visible
01 Nov 10.5 05:01:35 12° SE 05:01:35 12° SE 05:02:06 10° SE visible
01 Nov 9.6 06:36:08 10° SW 06:38:53 19° S 06:41:39 10° SE visible
02 Nov 9.5 05:11:54 16° SW 05:13:17 19° S 05:16:00 10° SE visible
